Vertical_Velocity
2 1 -1 -2 -1 -1 -2 0 0 -1 1 1 -2 -2 -0 -2 -3 -0 -1 -2 1 -0 -1 -2 -1 -2 -2 -0 0 1 -0 -1 -1
4 2 2 1 -0 6 6 1 0 -0 -3 -0 2 2 -4 -1 -3 -4 -4 2 2 0 -1 -1 -0 -1 -1 0 -1 -2 -1 0 0
1 3 1 1 0 4 -1 4 1 0 1 -2 -0 1 5 -0 -5 1 -4 -0 2 1 1 1 -1 -0 -1 -2 -1 0 -0 -1 -0
-3 -1 -1 0 1 2 2 0 1 0 1 -1 -0 1 0 1 1 -3 -3 -2 -2 -1 2 2 2 0 1 2 -0 -2 -1 -0 1
-1 -3 -2 -3 -2 0 1 5 4 0 -0 -0 1 -1 -0 1 -2 5 1 -1 -2 -3 -4 -3 -2 1 1 0 -1 1 0 -1 -2
-0 -1 -1 -3 -0 -1 -0 0 3 1 -1 -3 -1 0 1 1 -1 -1 -1 2 2 0 -2 -2 -3 -2 -2 -1 0 -1 -1 -1 -1
0 -3 -2 0 -1 -1 -0 5 -0 -1 -0 -0 -0 -1 0 -0 1 -4 -1 0 0 0 2 1 -1 -3 -3 -2 -2 -2 -1 -2 -2
-3 1 4 -1 2 0 -2 1 -6 -2 -2 -2 -2 0 2 -2 8 -3 -0 -0 -2 -2 -0 -0 0 2 1 -1 -2 -2 -2 -2 -2
9 3 1 -4 -2 -1 1 -1 -3 -1 1 1 -1 -0 -1 2 4 -2 -3 -1 1 3 -1 -2 -0 1 1 1 1 -0 -0 -0 -1
-4 -4 6 2 0 -1 -2 -2 -0 2 -0 1 -0 4 -3 -4 1 3 -2 -0 -3 -2 -2 -1 -1 -2 -0 -2 -2 -1 1 1 2
-3 -6 -4 4 -2 1 -2 -1 0 3 7 2 -3 3 1 8 -2 -1 -1 -2 1 1 -0 -2 -3 -3 -2 -1 0 -1 -3 -2 -2
-1 -3 -8 4 5 6 1 2 1 3 5 1 -5 -6 -0 -7 4 -2 1 -6 -4 -6 1 2 -0 -1 -3 -3 -2 3 2 0 -2
-1 -0 -5 2 4 9 3 9 6 4 4 3 2 -2 -10 -1 8 1 -1 1 2 4 -0 -3 -3 -0 1 -2 -1 -2 1 -1 0
0 -0 4 -0 -7 0 -11 2 4 10 6 9 2 2 1 -3 5 -3 1 3 1 -2 -2 0 3 1 -2 0 -1 1 -1 -1 -1
4 1 0 4 12 -12 2 -17 16 8 1 3 3 0 3 4 -4 -2 2 2 -1 1 2 -0 -6 -0 1 -1 -1 -4 0 -1 -4
1 2 4 4 -7 -2 -7 0 -9 -3 -3 9 -2 -2 -4 5 -3 -2 -1 -2 0 -2 -0 -1 -2 -4 0 -3 -2 -4 -2 -1 -4
9 -3 4 -5 -2 -5 6 2 -3 0 0 0 5 -0 -9 -8 -6 0 -4 -6 6 1 5 3 -8 -1 -1 -1 -2 3 5 -2 -5
16 -5 7 0 3 2 -2 0 -1 3 -6 2 5 1 -6 -4 -3 -5 -3 -2 1 2 2 3 5 -2 -2 -1 3 2 3 2 2
28 14 2 8 10 -3 2 -1 5 26 -3 4 -4 1 3 -3 -2 -0 1 3 3 -1 -3 -3 3 3 3 -2 -5 3 5 7 -4
20 8 -4 3 -0 -1 -1 -3 6 6 18 8 19 2 3 8 8 -8 -16 6 -3 -3 -3 -1 -4 -1 2 -1 -3 -3 3 13 -1
Height
1537 1538 1538 1540 1541 1542 1544 1545 1545 1546 1546 1547 1547 1548 1549 1551 1551 1552 1551 1550 1551 1551 1551 1551 1551 1550 1550 1550 1550 1549 1549 1549 1549
1536 1537 1538 1538 1540 1542 1543 1544 1545 1545 1546 1547 1548 1549 1549 1550 1550 1552 1551 1552 1551 1551 1551 1551 1551 1551 1551 1550 1550 1550 1549 1549 1549
1535 1536 1537 1538 1539 1541 1542 1544 1545 1545 1546 1547 1548 1548 1549 1550 1550 1552 1551 1552 1551 1551 1551 1551 1551 1551 1551 1551 1551 1550 1550 1550 1550
1533 1534 1535 1536 1537 1539 1540 1542 1544 1544 1545 1546 1547 1548 1549 1549 1549 1550 1550 1551 1551 1551 1551 1551 1551 1551 1551 1550 1550 1551 1551 1551 1551
1530 1532 1533 1534 1535 1537 1538 1540 1541 1543 1544 1545 1546 1547 1548 1549 1548 1550 1548 1550 1550 1550 1550 1551 1551 1551 1550 1550 1550 1550 1550 1551 1551
1527 1528 1530 1531 1532 1534 1535 1537 1539 1540 1541 1542 1543 1545 1546 1548 1547 1548 1548 1549 1549 1549 1549 1549 1550 1550 1550 1550 1550 1550 1550 1550 1551
1524 1525 1526 1527 1529 1531 1532 1534 1536 1537 1538 1539 1541 1542 1544 1546 1547 1547 1547 1548 1548 1548 1548 1548 1549 1549 1549 1549 1549 1549 1549 1549 1550
1521 1523 1523 1524 1526 1526 1528 1530 1531 1533 1535 1535 1537 1539 1541 1543 1546 1545 1545 1546 1546 1546 1546 1547 1547 1547 1547 1547 1547 1548 1548 1548 1548
1519 1520 1520 1521 1522 1523 1524 1525 1528 1529 1531 1532 1533 1536 1538 1540 1542 1541 1542 1543 1543 1543 1544 1544 1545 1545 1546 1546 1546 1546 1546 1546 1546
1515 1517 1518 1517 1517 1518 1520 1522 1524 1526 1527 1529 1531 1533 1534 1536 1539 1538 1538 1539 1540 1540 1541 1541 1542 1543 1543 1543 1544 1544 1545 1545 1545
1508 1510 1513 1513 1513 1514 1515 1518 1520 1522 1523 1524 1527 1530 1531 1533 1534 1535 1535 1536 1536 1536 1537 1537 1538 1539 1540 1540 1541 1541 1542 1543 1543
1503 1505 1507 1509 1510 1510 1511 1513 1516 1517 1519 1520 1521 1524 1526 1528 1529 1531 1531 1531 1531 1532 1533 1533 1534 1535 1536 1537 1537 1538 1538 1538 1539
1498 1500 1501 1503 1506 1506 1506 1509 1511 1512 1513 1514 1515 1518 1518 1521 1524 1524 1526 1526 1526 1526 1527 1529 1530 1531 1531 1532 1533 1534 1534 1535 1536
1493 1494 1496 1498 1499 1501 1502 1505 1506 1507 1508 1509 1510 1511 1513 1515 1517 1519 1521 1521 1522 1522 1522 1523 1524 1525 1526 1527 1528 1529 1529 1530 1531
1485 1487 1490 1492 1493 1498 1498 1499 1503 1503 1503 1505 1506 1507 1508 1509 1510 1512 1514 1516 1517 1517 1517 1517 1518 1519 1520 1521 1523 1524 1525 1524 1526
1480 1482 1484 1486 1489 1492 1495 1494 1498 1498 1499 1501 1500 1502 1503 1503 1504 1505 1506 1507 1509 1510 1510 1510 1511 1512 1514 1515 1516 1518 1519 1519 1520
1474 1475 1477 1480 1483 1487 1489 1487 1490 1491 1494 1497 1497 1495 1496 1497 1499 1499 1498 1499 1501 1503 1504 1503 1503 1504 1507 1508 1509 1510 1512 1513 1514
1463 1468 1471 1473 1476 1479 1482 1484 1485 1485 1488 1491 1493 1491 1488 1491 1492 1491 1491 1492 1492 1493 1496 1497 1497 1497 1499 1500 1501 1503 1505 1506 1507
1457 1455 1464 1466 1471 1474 1477 1479 1480 1482 1483 1484 1485 1484 1485 1485 1486 1487 1486 1486 1485 1484 1485 1486 1489 1490 1491 1492 1493 1494 1497 1499 1500
1444 1450 1457 1461 1464 1468 1471 1474 1476 1477 1478 1477 1477 1477 1478 1480 1481 1478 1477 1480 1479 1478 1477 1478 1477 1479 1480 1481 1484 1486 1487 1489 1490